Powrót do katalogu

UWE-4

AktywnyKrótkofalarstwoPO
NORAD 43880·PAYLOAD·🇩🇪 Germany

Wystrzelony Dec 27, 2018 z Vostochny Cosmodrome

Loading…

Następne Przeloty (najbliższe 24 godziny)

TLE

ŚwieżeSource: AMSAT

Epoka: Sep 13, 2026, 19:01 UTC

1 43880U 18111E   26256.79245483  .00037613  00000-0  63234-3 0  9999
2 43880  97.5820 189.6194 0007371  27.6586 332.5056 15.51636958424492

Śledź UWE-4 w czasie rzeczywistym z AllMySat

Download on the App Store